| time (UTC) | temp C | wind direction | speed KPH | gust KPH | rain 1hr cm | rain 24hr cm | rain mn cm | humidity % | barometer mb |
| 20260905002021 | 26 | 68 | 6.4 | 9.7 | 0.00 | 0.00 | 0.00 | 76 | 1012.4 |
| 20260905001521 | 26 | 70 | 6.4 | 9.7 | 0.00 | 0.00 | 0.00 | 76 | 1012.4 |
| 20260905001023 | 26 | 67 | 4.8 | 8.0 | 0.00 | 0.00 | 0.00 | 75 | 1012.4 |
| 20260905000520 | 26 | 91 | 3.2 | 8.0 | 0.00 | 0.00 | 0.00 | 75 | 1012.3 |
| 20260905000020 | 26 | 89 | 3.2 | 11.3 | 0.00 | 0.00 | 0.00 | 74 | 1012.2 |
| 20260904235519 | 26 | 87 | 6.4 | 12.9 | 0.00 | 0.00 | 0.00 | 73 | 1012.2 |
| 20260904235024 | 27 | 65 | 6.4 | 12.9 | 0.00 | 0.00 | 0.00 | 73 | 1012.2 |
| 20260904234521 | 27 | 65 | 1.6 | 9.7 | 0.00 | 0.00 | 0.00 | 73 | 1012.2 |
| 20260904234019 | 27 | 86 | 3.2 | 12.9 | 0.00 | 0.00 | 0.00 | 72 | 1012.2 |
| 20260904233519 | 27 | 60 | 3.2 | 12.9 | 0.00 | 0.00 | 0.00 | 72 | 1012.1 |
| 20260904233019 | 27 | 57 | 6.4 | 12.9 | 0.00 | 0.00 | 0.00 | 71 | 1012.2 |
| 20260904232518 | 27 | 77 | 8.0 | 12.9 | 0.00 | 0.00 | 0.00 | 70 | 1012.2 |
| 20260904232018 | 27 | 83 | 3.2 | 12.9 | 0.00 | 0.00 | 0.00 | 70 | 1012.1 |
| 20260904231517 | 27 | 72 | 6.4 | 12.9 | 0.00 | 0.00 | 0.00 | 68 | 1012.1 |
| 20260904231017 | 27 | 90 | 6.4 | 12.9 | 0.00 | 0.00 | 0.00 | 70 | 1012.1 |
| 20260904230517 | 27 | 73 | 8.0 | 12.9 | 0.00 | 0.00 | 0.00 | 69 | 1012.1 |
| 20260904230025 | 27 | 87 | 4.8 | 16.1 | 0.00 | 0.00 | 0.00 | 68 | 1012.0 |
| 20260904225516 | 27 | 73 | 4.8 | 16.1 | 0.00 | 0.00 | 0.00 | 69 | 1011.9 |
| 20260904225016 | 27 | 58 | 6.4 | 12.9 | 0.00 | 0.00 | 0.00 | 69 | 1011.8 |
| 20260904224525 | 27 | 12 | 8.0 | 14.5 | 0.00 | 0.00 | 0.00 | 68 | 1011.9 |
| 20260904224016 | 27 | 113 | 6.4 | 16.1 | 0.00 | 0.00 | 0.00 | 69 | 1011.8 |
| 20260904223517 | 27 | 70 | 9.7 | 16.1 | 0.00 | 0.00 | 0.00 | 67 | 1011.8 |
| 20260904223015 | 27 | 65 | 6.4 | 16.1 | 0.00 | 0.00 | 0.00 | 68 | 1011.7 |
| 20260904222518 | 27 | 70 | 11.3 | 16.1 | 0.00 | 0.00 | 0.00 | 68 | 1011.7 |
| 20260904222015 | 27 | 81 | 6.4 | 16.1 | 0.00 | 0.00 | 0.00 | 69 | 1011.6 |
| 20260904221521 | 27 | 77 | 9.7 | 16.1 | 0.00 | 0.00 | 0.00 | 67 | 1011.7 |
| 20260904221015 | 27 | 81 | 9.7 | 14.5 | 0.00 | 0.00 | 0.00 | 68 | 1011.7 |
| 20260904220513 | 27 | 108 | 6.4 | 12.9 | 0.00 | 0.00 | 0.00 | 68 | 1011.6 |
| 20260904220012 | 27 | 90 | 6.4 | 12.9 | 0.00 | 0.00 | 0.00 | 69 | 1011.6 |
| 20260904215512 | 27 | 110 | 8.0 | 12.9 | 0.00 | 0.00 | 0.00 | 70 | 1011.5 |
| 20260904215011 | 27 | 85 | 6.4 | 11.3 | 0.00 | 0.00 | 0.00 | 69 | 1011.5 |
| 20260904214517 | 27 | 71 | 6.4 | 11.3 | 0.00 | 0.00 | 0.00 | 70 | 1011.6 |
| 20260904214009 | 27 | 94 | 3.2 | 11.3 | 0.00 | 0.00 | 0.00 | 71 | 1011.7 |
| 20260904213511 | 27 | 98 | 6.4 | 12.9 | 0.00 | 0.00 | 0.00 | 71 | 1011.6 |
| 20260904213009 | 27 | 92 | 8.0 | 12.9 | 0.00 | 0.00 | 0.00 | 71 | 1011.6 |
| 20260904212509 | 27 | 98 | 6.4 | 12.9 | 0.00 | 0.00 | 0.00 | 72 | 1011.5 |
| 20260904212008 | 27 | 105 | 6.4 | 14.5 | 0.00 | 0.00 | 0.00 | 71 | 1011.5 |
| 20260904211507 | 27 | 113 | 8.0 | 14.5 | 0.00 | 0.00 | 0.00 | 72 | 1011.5 |
| 20260904211012 | 27 | 65 | 8.0 | 14.5 | 0.00 | 0.00 | 0.00 | 72 | 1011.4 |
| 20260904210507 | 27 | 81 | 8.0 | 14.5 | 0.00 | 0.00 | 0.00 | 73 | 1011.5 |
| 20260904210006 | 27 | 84 | 8.0 | 12.9 | 0.00 | 0.00 | 0.00 | 74 | 1011.5 |
| 20260904205507 | 27 | 98 | 6.4 | 14.5 | 0.00 | 0.00 | 0.00 | 73 | 1011.6 |
| 20260904205005 | 27 | 77 | 8.0 | 14.5 | 0.00 | 0.00 | 0.00 | 74 | 1011.5 |
| 20260904204508 | 27 | 88 | 6.4 | 12.9 | 0.00 | 0.00 | 0.00 | 74 | 1011.5 |
| 20260904204004 | 26 | 104 | 6.4 | 12.9 | 0.00 | 0.00 | 0.00 | 75 | 1011.5 |
| 20260904203504 | 26 | 103 | 8.0 | 11.3 | 0.00 | 0.00 | 0.00 | 75 | 1011.6 |
| 20260904203003 | 27 | 101 | 6.4 | 11.3 | 0.00 | 0.00 | 0.00 | 75 | 1011.7 |
| 20260904202503 | 26 | 84 | 8.0 | 12.9 | 0.00 | 0.00 | 0.00 | 75 | 1011.7 |
| 20260904202003 | 27 | 108 | 6.4 | 19.3 | 0.00 | 0.00 | 0.00 | 76 | 1011.7 |
| 20260904201503 | 27 | 47 | 11.3 | 19.3 | 0.00 | 0.00 | 0.00 | 75 | 1011.6 |
| 20260904201003 | 26 | 64 | 6.4 | 19.3 | 0.00 | 0.00 | 0.00 | 75 | 1011.6 |
| 20260904200502 | 26 | 93 | 8.0 | 19.3 | 0.00 | 0.00 | 0.00 | 75 | 1011.6 |
| 20260904200002 | 26 | 96 | 9.7 | 16.1 | 0.00 | 0.00 | 0.00 | 76 | 1011.7 |
| 20260904195504 | 26 | 70 | 9.7 | 17.7 | 0.00 | 0.00 | 0.00 | 76 | 1011.6 |
| 20260904195001 | 26 | 75 | 9.7 | 20.9 | 0.00 | 0.00 | 0.00 | 77 | 1011.6 |
| 20260904194608 | 26 | 152 | 11.3 | 20.9 | 0.00 | 0.00 | 0.00 | 78 | 1011.7 |
| 20260904194100 | 26 | 73 | 14.5 | 17.7 | 0.00 | 0.00 | 0.00 | 77 | 1011.7 |
| 20260904193600 | 26 | 103 | 9.7 | 17.7 | 0.00 | 0.00 | 0.00 | 77 | 1011.7 |
| 20260904193059 | 26 | 69 | 12.9 | 20.9 | 0.00 | 0.00 | 0.00 | 77 | 1011.7 |
| 20260904192558 | 26 | 96 | 11.3 | 16.1 | 0.00 | 0.00 | 0.00 | 77 | 1011.7 |
| 20260904192058 | 26 | 56 | 8.0 | 16.1 | 0.00 | 0.00 | 0.00 | 78 | 1011.6 |
| 20260904191557 | 26 | 97 | 9.7 | 16.1 | 0.00 | 0.00 | 0.00 | 78 | 1011.7 |
| 20260904191156 | 26 | 83 | 8.0 | 14.5 | 0.00 | 0.00 | 0.00 | 78 | 1011.7 |
| 20260904190555 | 26 | 101 | 8.0 | 19.3 | 0.00 | 0.00 | 0.00 | 79 | 1011.7 |
| 20260904190057 | 26 | 77 | 9.7 | 20.9 | 0.00 | 0.00 | 0.00 | 80 | 1011.7 |
| 20260904185554 | 26 | 108 | 8.0 | 20.9 | 0.00 | 0.00 | 0.00 | 80 | 1011.8 |
| 20260904185054 | 26 | 56 | 11.3 | 20.9 | 0.00 | 0.00 | 0.00 | 81 | 1011.8 |
| 20260904184554 | 26 | 81 | 6.4 | 20.9 | 0.00 | 0.00 | 0.00 | 82 | 1011.8 |
| 20260904184055 | 26 | 58 | 11.3 | 19.3 | 0.00 | 0.00 | 0.00 | 81 | 1011.8 |
| 20260904183552 | 25 | 75 | 9.7 | 14.5 | 0.00 | 0.00 | 0.00 | 82 | 1011.8 |
| 20260904183110 | 25 | 98 | 8.0 | 14.5 | 0.00 | 0.00 | 0.00 | 83 | 1011.9 |
| 20260904182549 | 25 | 109 | 6.4 | 17.7 | 0.00 | 0.00 | 0.00 | 84 | 1012.0 |
| 20260904182049 | 25 | 105 | 8.0 | 17.7 | 0.00 | 0.00 | 0.00 | 84 | 1012.0 |
| 20260904181549 | 25 | 85 | 9.7 | 17.7 | 0.00 | 0.00 | 0.00 | 84 | 1011.9 |
| 20260904181051 | 25 | 67 | 8.0 | 17.7 | 0.00 | 0.00 | 0.00 | 84 | 1011.9 |
| 20260904180551 | 25 | 77 | 11.3 | 17.7 | 0.00 | 0.00 | 0.00 | 84 | 1011.8 |
| 20260904180048 | 25 | 75 | 11.3 | 22.5 | 0.00 | 0.00 | 0.00 | 85 | 1011.8 |
| 20260904175547 | 25 | 96 | 11.3 | 22.5 | 0.00 | 0.00 | 0.00 | 85 | 1011.8 |
| 20260904175049 | 25 | 81 | 6.4 | 24.1 | 0.00 | 0.00 | 0.00 | 86 | 1011.8 |
| 20260904174546 | 25 | 75 | 14.5 | 24.1 | 0.00 | 0.00 | 0.00 | 86 | 1011.7 |
| 20260904174043 | 24 | 96 | 9.7 | 22.5 | 0.00 | 0.00 | 0.00 | 87 | 1011.7 |
| 20260904173542 | 24 | 75 | 12.9 | 22.5 | 0.00 | 0.00 | 0.00 | 88 | 1011.7 |
| 20260904173043 | 24 | 74 | 12.9 | 22.5 | 0.00 | 0.00 | 0.00 | 89 | 1011.6 |
| 20260904172539 | 23 | 91 | 9.7 | 22.5 | 0.00 | 0.00 | 0.00 | 90 | 1011.6 |
| 20260904172039 | 23 | 79 | 12.9 | 24.1 | 0.00 | 0.00 | 0.00 | 90 | 1011.6 |
| 20260904171542 | 23 | 52 | 14.5 | 22.5 | 0.00 | 0.00 | 0.00 | 89 | 1011.6 |
| 20260904171042 | 23 | 126 | 11.3 | 22.5 | 0.00 | 0.00 | 0.00 | 90 | 1011.5 |
| 20260904170541 | 23 | 60 | 16.1 | 22.5 | 0.00 | 0.00 | 0.00 | 89 | 1011.5 |
| 20260904170039 | 23 | 123 | 6.4 | 16.1 | 0.00 | 0.00 | 0.00 | 91 | 1011.5 |
| 20260904165536 | 23 | 87 | 6.4 | 16.1 | 0.00 | 0.00 | 0.00 | 91 | 1011.5 |
| 20260904165036 | 23 | 83 | 11.3 | 17.7 | 0.00 | 0.00 | 0.00 | 90 | 1011.5 |
| 20260904164534 | 23 | 86 | 9.7 | 17.7 | 0.00 | 0.00 | 0.00 | 93 | 1011.5 |
| 20260904164034 | 22 | 74 | 11.3 | 17.7 | 0.00 | 0.00 | 0.00 | 93 | 1011.6 |
| 20260904163532 | 22 | 68 | 12.9 | 17.7 | 0.00 | 0.00 | 0.00 | 95 | 1011.4 |
| 20260904163134 | 22 | 114 | 11.3 | 17.7 | 0.00 | 0.00 | 0.00 | 95 | 1011.3 |
| 20260904162531 | 22 | 77 | 11.3 | 17.7 | 0.00 | 0.00 | 0.00 | 96 | 1011.3 |
| 20260904162032 | 22 | 63 | 11.3 | 14.5 | 0.00 | 0.00 | 0.00 | 96 | 1011.3 |
| 20260904161531 | 21 | 86 | 4.8 | 12.9 | 0.00 | 0.00 | 0.00 | 97 | 1011.4 |
| 20260904161030 | 21 | 69 | 6.4 | 11.3 | 0.00 | 0.00 | 0.00 | 98 | 1011.3 |
| 20260904160529 | 21 | 54 | 4.8 | 11.3 | 0.00 | 0.00 | 0.00 | 99 | 1011.2 |
| 20260904160029 | 21 | 82 | 6.4 | 11.3 | 0.00 | 0.00 | 0.00 | 99 | 1011.2 |
| 20260904155529 | 21 | 73 | 0.0 | 11.3 | 0.00 | 0.00 | 0.00 | 100 | 1011.1 |
| 20260904155028 | 20 | 82 | 6.4 | 12.9 | 0.00 | 0.00 | 0.00 | 100 | 1011.1 |
| 20260904154528 | 20 | 98 | 9.7 | 14.5 | 0.00 | 0.00 | 0.00 | 100 | 1011.1 |
| 20260904154028 | 20 | 74 | 8.0 | 14.5 | 0.00 | 0.00 | 0.00 | 100 | 1011.1 |
| 20260904153527 | 20 | 69 | 6.4 | 11.3 | 0.00 | 0.00 | 0.00 | 100 | 1011.0 |
| 20260904153026 | 20 | 96 | 6.4 | 14.5 | 0.00 | 0.00 | 0.00 | 100 | 1010.9 |
| 20260904152526 | 20 | 67 | 6.4 | 14.5 | 0.00 | 0.00 | 0.00 | 100 | 1010.8 |
| 20260904152025 | 20 | 56 | 4.8 | 12.9 | 0.00 | 0.00 | 0.00 | 100 | 1010.8 |
| 20260904151527 | 20 | 58 | 9.7 | 16.1 | 0.00 | 0.00 | 0.00 | 100 | 1010.8 |
| 20260904151024 | 20 | 84 | 8.0 | 12.9 | 0.00 | 0.00 | 0.00 | 100 | 1010.8 |
| 20260904150524 | 20 | 66 | 4.8 | 11.3 | 0.00 | 0.00 | 0.00 | 100 | 1010.7 |
| 20260904150027 | 20 | 47 | 6.4 | 12.9 | 0.00 | 0.00 | 0.00 | 100 | 1010.7 |
| 20260904145524 | 20 | 63 | 8.0 | 11.3 | 0.00 | 0.00 | 0.00 | 100 | 1010.6 |
| 20260904145022 | 20 | 47 | 4.8 | 9.7 | 0.00 | 0.00 | 0.00 | 100 | 1010.6 |
| 20260904144524 | 20 | 23 | 0.0 | 8.0 | 0.00 | 0.00 | 0.00 | 100 | 1010.6 |
| 20260904144022 | 20 | 73 | 3.2 | 8.0 | 0.00 | 0.00 | 0.00 | 100 | 1010.6 |
| 20260904143522 | 20 | 62 | 0.0 | 6.4 | 0.00 | 0.00 | 0.00 | 100 | 1010.5 |
| 20260904143021 | 20 | 69 | 4.8 | 6.4 | 0.00 | 0.00 | 0.00 | 100 | 1010.6 |
| 20260904142520 | 20 | 71 | 3.2 | 6.4 | 0.00 | 0.00 | 0.00 | 100 | 1010.3 |
| 20260904142020 | 19 | 85 | 1.6 | 6.4 | 0.00 | 0.00 | 0.00 | 100 | 1010.3 |
| 20260904141519 | 19 | 65 | 0.0 | 6.4 | 0.00 | 0.00 | 0.00 | 100 | 1010.3 |
| 20260904141017 | 19 | 71 | 1.6 | 6.4 | 0.00 | 0.00 | 0.00 | 100 | 1010.3 |
| 20260904140516 | 19 | 67 | 1.6 | 6.4 | 0.00 | 0.00 | 0.00 | 100 | 1010.2 |
| 20260904140016 | 19 | 63 | 1.6 | 6.4 | 0.00 | 0.00 | 0.00 | 100 | 1010.1 |
| 20260904135516 | 19 | 57 | 1.6 | 6.4 | 0.00 | 0.00 | 0.00 | 100 | 1010.1 |
| 20260904135016 | 19 | 69 | 1.6 | 8.0 | 0.00 | 0.00 | 0.00 | 100 | 1010.1 |
| 20260904134521 | 19 | 60 | 1.6 | 6.4 | 0.00 | 0.00 | 0.00 | 100 | 1010.1 |
| 20260904134016 | 19 | 90 | 0.0 | 6.4 | 0.00 | 0.00 | 0.00 | 100 | 1010.0 |
| 20260904133513 | 19 | 96 | 0.0 | 6.4 | 0.00 | 0.00 | 0.00 | 100 | 1009.8 |
| 20260904133013 | 19 | 101 | 1.6 | 8.0 | 0.00 | 0.00 | 0.00 | 100 | 1009.8 |
| 20260904132513 | 18 | 64 | 4.8 | 8.0 | 0.00 | 0.00 | 0.00 | 100 | 1009.8 |
| 20260904132012 | 18 | 63 | 4.8 | 9.7 | 0.00 | 0.00 | 0.00 | 100 | 1009.8 |
| 20260904131512 | 18 | 73 | 6.4 | 8.0 | 0.00 | 0.00 | 0.00 | 100 | 1009.8 |
| 20260904131011 | 18 | 69 | 4.8 | 8.0 | 0.00 | 0.00 | 0.00 | 100 | 1009.7 |
| 20260904130511 | 18 | 83 | 3.2 | 9.7 | 0.00 | 0.00 | 0.00 | 100 | 1009.7 |
| 20260904130023 | 18 | 73 | 6.4 | 9.7 | 0.00 | 0.00 | 0.00 | 100 | 1009.7 |
| 20260904125512 | 18 | 69 | 4.8 | 9.7 | 0.00 | 0.00 | 0.00 | 100 | 1009.6 |
| 20260904125009 | 18 | 70 | 6.4 | 9.7 | 0.00 | 0.00 | 0.00 | 100 | 1009.6 |
| 20260904124509 | 18 | 72 | 4.8 | 11.3 | 0.00 | 0.00 | 0.00 | 100 | 1009.4 |
| 20260904124010 | 18 | 138 | 6.4 | 11.3 | 0.00 | 0.00 | 0.00 | 100 | 1009.4 |
| 20260904123508 | 18 | 77 | 3.2 | 14.5 | 0.00 | 0.00 | 0.00 | 100 | 1009.3 |
| 20260904123015 | 18 | 68 | 6.4 | 14.5 | 0.00 | 0.00 | 0.00 | 100 | 1009.5 |
| 20260904122505 | 18 | 73 | 9.7 | 12.9 | 0.00 | 0.00 | 0.00 | 100 | 1009.5 |
| 20260904122004 | 19 | 70 | 6.4 | 12.9 | 0.00 | 0.00 | 0.00 | 100 | 1009.4 |
| 20260904121503 | 19 | 75 | 4.8 | 12.9 | 0.00 | 0.00 | 0.00 | 100 | 1009.3 |
| 20260904121001 | 19 | 56 | 8.0 | 12.9 | 0.00 | 0.00 | 0.00 | 100 | 1009.3 |
| 20260904120501 | 19 | 62 | 8.0 | 12.9 | 0.00 | 0.00 | 0.00 | 100 | 1009.3 |
| 20260904120112 | 19 | 65 | 6.4 | 11.3 | 0.00 | 0.00 | 0.00 | 100 | 1009.2 |
| 20260904120034 | 19 | 58 | 4.8 | 12.9 | 0.00 | 0.00 | 0.00 | 100 | 1009.2 |
| 20260904115603 | 19 | 79 | 8.0 | 11.3 | 0.00 | 0.00 | 0.00 | 100 | 1009.1 |
| 20260904115059 | 20 | 61 | 8.0 | 11.3 | 0.00 | 0.00 | 0.00 | 100 | 1009.0 |
| 20260904114558 | 20 | 75 | 3.2 | 9.7 | 0.00 | 0.00 | 0.00 | 100 | 1009.0 |
| 20260904114057 | 20 | 79 | 4.8 | 11.3 | 0.00 | 0.00 | 0.00 | 100 | 1008.9 |
| 20260904113556 | 20 | 72 | 8.0 | 11.3 | 0.00 | 0.00 | 0.00 | 100 | 1009.0 |
| 20260904113056 | 20 | 77 | 6.4 | 12.9 | 0.00 | 0.00 | 0.00 | 100 | 1008.8 |
| 20260904112558 | 20 | 68 | 6.4 | 9.7 | 0.00 | 0.00 | 0.00 | 100 | 1008.8 |
| 20260904112056 | 20 | 65 | 4.8 | 11.3 | 0.00 | 0.00 | 0.00 | 100 | 1008.9 |
| 20260904111553 | 20 | 63 | 4.8 | 11.3 | 0.00 | 0.00 | 0.00 | 100 | 1008.8 |
| 20260904111057 | 20 | 72 | 0.0 | 11.3 | 0.00 | 0.00 | 0.00 | 100 | 1008.8 |
| 20260904110552 | 20 | 67 | 0.0 | 11.3 | 0.00 | 0.00 | 0.00 | 100 | 1008.8 |
| 20260904110053 | 21 | 64 | 6.4 | 9.7 | 0.00 | 0.00 | 0.00 | 100 | 1008.8 |
| 20260904105553 | 21 | 65 | 4.8 | 12.9 | 0.00 | 0.00 | 0.00 | 100 | 1008.8 |
| 20260904105049 | 21 | 107 | 3.2 | 12.9 | 0.00 | 0.00 | 0.00 | 100 | 1008.6 |
| 20260904104548 | 21 | 79 | 3.2 | 16.1 | 0.00 | 0.00 | 0.00 | 100 | 1008.6 |
| 20260904104048 | 21 | 64 | 11.3 | 16.1 | 0.00 | 0.00 | 0.00 | 100 | 1008.6 |
| 20260904103547 | 21 | 90 | 0.0 | 11.3 | 0.00 | 0.00 | 0.00 | 100 | 1008.3 |
| 20260904103047 | 21 | 64 | 9.7 | 11.3 | 0.00 | 0.00 | 0.00 | 100 | 1008.6 |
| 20260904102546 | 21 | 136 | 0.0 | 9.7 | 0.00 | 0.00 | 0.00 | 100 | 1008.3 |
| 20260904102045 | 21 | 120 | 6.4 | 11.3 | 0.00 | 0.00 | 0.00 | 100 | 1008.5 |
| 20260904101544 | 21 | 155 | 0.0 | 11.3 | 0.00 | 0.00 | 0.00 | 100 | 1008.3 |
| 20260904101045 | 21 | 91 | 6.4 | 12.9 | 0.00 | 0.00 | 0.00 | 100 | 1008.5 |
| 20260904100545 | 21 | 194 | 1.6 | 12.9 | 0.00 | 0.00 | 0.00 | 100 | 1008.4 |
| 20260904100047 | 21 | 67 | 3.2 | 12.9 | 0.00 | 0.00 | 0.00 | 100 | 1008.5 |
| 20260904095544 | 21 | 103 | 1.6 | 8.0 | 0.00 | 0.00 | 0.00 | 100 | 1008.4 |
| 20260904095044 | 21 | 94 | 0.0 | 9.7 | 0.00 | 0.00 | 0.00 | 100 | 1008.4 |
| 20260904094543 | 21 | 115 | 1.6 | 9.7 | 0.00 | 0.00 | 0.00 | 100 | 1008.4 |
| 20260904094042 | 21 | 64 | 1.6 | 8.0 | 0.00 | 0.00 | 0.00 | 100 | 1008.5 |
| 20260904093542 | 21 | 111 | 0.0 | 4.8 | 0.00 | 0.00 | 0.00 | 99 | 1008.5 |
| 20260904093040 | 21 | 88 | 1.6 | 4.8 | 0.00 | 0.00 | 0.00 | 100 | 1008.4 |
| 20260904092541 | 21 | 101 | 0.0 | 4.8 | 0.00 | 0.00 | 0.00 | 100 | 1008.2 |
| 20260904092040 | 21 | 117 | 0.0 | 11.3 | 0.00 | 0.00 | 0.00 | 100 | 1008.2 |
| 20260904091541 | 21 | 94 | 8.0 | 11.3 | 0.00 | 0.00 | 0.00 | 99 | 1008.3 |
| 20260904091039 | 21 | 82 | 0.0 | 12.9 | 0.00 | 0.00 | 0.00 | 100 | 1008.2 |
| 20260904090539 | 21 | 156 | 0.0 | 16.1 | 0.00 | 0.00 | 0.00 | 99 | 1008.1 |
| 20260904090039 | 21 | 69 | 12.9 | 17.7 | 0.00 | 0.00 | 0.00 | 100 | 1008.4 |
| 20260904085537 | 21 | 79 | 1.6 | 24.1 | 0.00 | 0.00 | 0.00 | 100 | 1008.1 |
| 20260904085040 | 21 | 127 | 1.6 | 24.1 | 0.00 | 0.00 | 0.00 | 99 | 1008.0 |
| 20260904084537 | 21 | 72 | 16.1 | 17.7 | 0.00 | 0.00 | 0.00 | 98 | 1008.1 |
| 20260904084037 | 21 | 82 | 0.0 | 1.6 | 0.00 | 0.00 | 0.00 | 99 | 1007.8 |
| 20260904083535 | 21 | 136 | 0.0 | 0.0 | 0.00 | 0.00 | 0.00 | 99 | 1007.7 |
| 20260904083037 | 21 | 136 | 0.0 | 0.0 | 0.00 | 0.00 | 0.00 | 99 | 1007.7 |
| 20260904082534 | 21 | 136 | 0.0 | 0.0 | 0.00 | 0.00 | 0.00 | 99 | 1007.7 |
| 20260904082034 | 21 | 136 | 0.0 | 1.6 | 0.00 | 0.00 | 0.00 | 99 | 1007.7 |
| 20260904081544 | 21 | 136 | 0.0 | 1.6 | 0.00 | 0.00 | 0.00 | 99 | 1007.7 |
| 20260904081033 | 22 | 83 | 0.0 | 0.0 | 0.00 | 0.00 | 0.00 | 98 | 1007.6 |
| 20260904080533 | 22 | 84 | 0.0 | 1.6 | 0.00 | 0.00 | 0.00 | 99 | 1007.7 |
| 20260904080033 | 22 | 83 | 0.0 | 1.6 | 0.00 | 0.00 | 0.00 | 99 | 1007.6 |
| 20260904075533 | 22 | 107 | 0.0 | 1.6 | 0.00 | 0.00 | 0.00 | 99 | 1007.6 |
| 20260904075032 | 22 | 115 | 0.0 | 0.0 | 0.00 | 0.00 | 0.00 | 99 | 1007.6 |
| 20260904074533 | 22 | 156 | 0.0 | 1.6 | 0.00 | 0.00 | 0.00 | 99 | 1007.6 |
| 20260904074032 | 22 | 156 | 0.0 | 1.6 | 0.00 | 0.00 | 0.00 | 99 | 1007.6 |
| 20260904073536 | 22 | 236 | 0.0 | 1.6 | 0.00 | 0.00 | 0.00 | 99 | 1007.7 |
| 20260904073030 | 21 | 97 | 0.0 | 3.2 | 0.00 | 0.00 | 0.00 | 98 | 1007.7 |
| 20260904072530 | 21 | 90 | 0.0 | 3.2 | 0.00 | 0.00 | 0.00 | 98 | 1007.7 |
| 20260904072032 | 21 | 56 | 0.0 | 1.6 | 0.00 | 0.00 | 0.00 | 98 | 1007.7 |
| 20260904071531 | 21 | 115 | 0.0 | 1.6 | 0.00 | 0.00 | 0.00 | 97 | 1007.6 |
| 20260904071030 | 22 | 97 | 0.0 | 0.0 | 0.00 | 0.00 | 0.00 | 97 | 1007.6 |
| 20260904070529 | 22 | 97 | 0.0 | 0.0 | 0.00 | 0.00 | 0.00 | 97 | 1007.7 |
| 20260904070030 | 22 | 98 | 0.0 | 0.0 | 0.00 | 0.00 | 0.00 | 97 | 1007.7 |
| 20260904065528 | 22 | 97 | 0.0 | 0.0 | 0.00 | 0.00 | 0.00 | 97 | 1007.7 |
| 20260904065027 | 22 | 89 | 0.0 | 1.6 | 0.00 | 0.00 | 0.00 | 97 | 1007.8 |
| 20260904064527 | 22 | 89 | 0.0 | 1.6 | 0.00 | 0.00 | 0.00 | 97 | 1007.7 |
| 20260904064027 | 22 | 100 | 0.0 | 1.6 | 0.00 | 0.00 | 0.00 | 97 | 1007.7 |
| 20260904063526 | 22 | 100 | 0.0 | 1.6 | 0.00 | 0.00 | 0.00 | 97 | 1007.7 |
| 20260904063025 | 22 | 100 | 0.0 | 1.6 | 0.00 | 0.00 | 0.00 | 96 | 1007.7 |
| 20260904062528 | 22 | 92 | 0.0 | 1.6 | 0.00 | 0.00 | 0.00 | 96 | 1007.7 |
| 20260904062024 | 22 | 94 | 0.0 | 1.6 | 0.00 | 0.00 | 0.00 | 96 | 1007.7 |
| 20260904061538 | 22 | 94 | 0.0 | 1.6 | 0.00 | 0.00 | 0.00 | 96 | 1007.6 |
| 20260904061022 | 22 | 96 | 0.0 | 1.6 | 0.00 | 0.00 | 0.00 | 95 | 1007.6 |
| 20260904060522 | 22 | 117 | 0.0 | 0.0 | 0.00 | 0.00 | 0.00 | 95 | 1007.6 |
| 20260904060022 | 22 | 115 | 0.0 | 1.6 | 0.00 | 0.00 | 0.00 | 95 | 1007.6 |
| 20260904055521 | 22 | 141 | 0.0 | 3.2 | 0.00 | 0.00 | 0.00 | 95 | 1007.5 |
| 20260904055020 | 23 | 181 | 0.0 | 3.2 | 0.00 | 0.00 | 0.00 | 95 | 1007.5 |
| 20260904054522 | 23 | 200 | 0.0 | 3.2 | 0.00 | 0.00 | 0.00 | 95 | 1007.3 |
| 20260904054018 | 22 | 179 | 0.0 | 1.6 | 0.00 | 0.00 | 0.00 | 95 | 1007.3 |
| 20260904053521 | 23 | 242 | 0.0 | 1.6 | 0.00 | 0.00 | 0.00 | 95 | 1007.3 |
| 20260904053014 | 23 | 214 | 0.0 | 1.6 | 0.00 | 0.00 | 0.00 | 95 | 1007.2 |
| 20260904052513 | 23 | 246 | 0.0 | 1.6 | 0.00 | 0.00 | 0.00 | 94 | 1007.2 |
| 20260904052014 | 23 | 243 | 0.0 | 1.6 | 0.00 | 0.00 | 0.00 | 94 | 1007.3 |
| 20260904051510 | 23 | 242 | 0.0 | 1.6 | 0.00 | 0.00 | 0.00 | 94 | 1007.2 |
| 20260904051013 | 23 | 243 | 0.0 | 1.6 | 0.00 | 0.00 | 0.00 | 94 | 1007.2 |
| 20260904050507 | 23 | 238 | 0.0 | 1.6 | 0.00 | 0.00 | 0.00 | 93 | 1007.2 |
| 20260904050006 | 23 | 242 | 0.0 | 1.6 | 0.00 | 0.00 | 0.00 | 93 | 1007.1 |
| 20260904045507 | 23 | 238 | 0.0 | 1.6 | 0.00 | 0.00 | 0.00 | 93 | 1007.1 |
| 20260904045008 | 23 | 245 | 0.0 | 1.6 | 0.00 | 0.00 | 0.00 | 93 | 1007.1 |
| 20260904044508 | 23 | 243 | 0.0 | 1.6 | 0.00 | 0.00 | 0.00 | 92 | 1007.1 |
| 20260904044005 | 23 | 198 | 0.0 | 3.2 | 0.00 | 0.00 | 0.00 | 92 | 1007.1 |
| 20260904043504 | 23 | 242 | 0.0 | 3.2 | 0.00 | 0.00 | 0.00 | 92 | 1007.2 |
| 20260904043004 | 23 | 248 | 0.0 | 3.2 | 0.00 | 0.00 | 0.00 | 91 | 1007.2 |
| 20260904042504 | 23 | 207 | 0.0 | 1.6 | 0.00 | 0.00 | 0.00 | 91 | 1007.2 |
| 20260904042003 | 23 | 271 | 0.0 | 6.4 | 0.00 | 0.00 | 0.00 | 91 | 1007.1 |
| 20260904041504 | 23 | 226 | 0.0 | 6.4 | 0.00 | 0.00 | 0.00 | 90 | 1007.1 |
| 20260904041003 | 23 | 242 | 0.0 | 4.8 | 0.00 | 0.00 | 0.00 | 90 | 1007.2 |
| 20260904040503 | 23 | 145 | 0.0 | 1.6 | 0.00 | 0.00 | 0.00 | 90 | 1007.2 |
| 20260904040003 | 23 | 226 | 0.0 | 3.2 | 0.00 | 0.00 | 0.00 | 89 | 1007.1 |
| 20260904035503 | 23 | 174 | 0.0 | 3.2 | 0.00 | 0.00 | 0.00 | 89 | 1007.1 |
| 20260904035003 | 23 | 233 | 0.0 | 3.2 | 0.00 | 0.00 | 0.00 | 89 | 1007.1 |
| 20260904034503 | 24 | 195 | 0.0 | 3.2 | 0.00 | 0.00 | 0.00 | 88 | 1007.2 |
| 20260904034003 | 24 | 215 | 0.0 | 3.2 | 0.00 | 0.00 | 0.00 | 88 | 1007.2 |
| 20260904033503 | 24 | 277 | 0.0 | 6.4 | 0.00 | 0.00 | 0.00 | 88 | 1007.2 |
| 20260904033002 | 24 | 214 | 0.0 | 6.4 | 0.00 | 0.00 | 0.00 | 87 | 1007.1 |
| 20260904032502 | 24 | 243 | 0.0 | 6.4 | 0.00 | 0.00 | 0.00 | 87 | 1007.1 |
| 20260904032003 | 24 | 238 | 0.0 | 6.4 | 0.00 | 0.00 | 0.00 | 87 | 1007.1 |
| 20260904031502 | 24 | 208 | 0.0 | 6.4 | 0.00 | 0.00 | 0.00 | 86 | 1007.1 |
| 20260904031002 | 25 | 298 | 1.6 | 6.4 | 0.00 | 0.00 | 0.00 | 86 | 1007.2 |
| 20260904030501 | 25 | 158 | 0.0 | 6.4 | 0.00 | 0.00 | 0.00 | 86 | 1007.2 |
| 20260904030005 | 25 | 222 | 0.0 | 6.4 | 0.00 | 0.00 | 0.00 | 85 | 1007.2 |
| 20260904025501 | 25 | 240 | 0.0 | 8.0 | 0.00 | 0.00 | 0.00 | 85 | 1007.2 |
| 20260904025001 | 25 | 274 | 1.6 | 9.7 | 0.00 | 0.00 | 0.00 | 85 | 1007.2 |
| 20260904024601 | 25 | 212 | 1.6 | 9.7 | 0.00 | 0.00 | 0.00 | 84 | 1007.1 |
| 20260904024500 | 25 | 240 | 1.6 | 11.3 | 0.00 | 0.00 | 0.00 | 84 | 1007.1 |
| 20260904024001 | 25 | 249 | 1.6 | 11.3 | 0.00 | 0.00 | 0.00 | 84 | 1007.1 |
| 20260904023600 | 25 | 264 | 1.6 | 11.3 | 0.00 | 0.00 | 0.00 | 83 | 1007.1 |
| 20260904023059 | 25 | 162 | 3.2 | 11.3 | 0.00 | 0.00 | 0.00 | 83 | 1007.1 |
| 20260904022600 | 25 | 169 | 1.6 | 11.3 | 0.00 | 0.00 | 0.00 | 83 | 1007.0 |
| 20260904022058 | 25 | 165 | 1.6 | 8.0 | 0.00 | 0.00 | 0.00 | 83 | 1006.9 |
| 20260904021558 | 25 | 148 | 1.6 | 8.0 | 0.00 | 0.00 | 0.00 | 83 | 1007.0 |
| 20260904021057 | 25 | 225 | 0.0 | 8.0 | 0.00 | 0.00 | 0.00 | 82 | 1006.8 |
| 20260904020559 | 25 | 225 | 1.6 | 8.0 | 0.00 | 0.00 | 0.00 | 82 | 1006.8 |
| 20260904020057 | 25 | 190 | 0.0 | 4.8 | 0.00 | 0.00 | 0.00 | 81 | 1006.9 |
| 20260904015557 | 25 | 109 | 0.0 | 4.8 | 0.00 | 0.00 | 0.00 | 81 | 1006.9 |
| 20260904015055 | 25 | 128 | 0.0 | 4.8 | 0.00 | 0.00 | 0.00 | 81 | 1006.9 |
| 20260904014611 | 25 | 177 | 0.0 | 3.2 | 0.00 | 0.00 | 0.00 | 80 | 1006.8 |
| 20260904014056 | 26 | 99 | 0.0 | 3.2 | 0.00 | 0.00 | 0.00 | 80 | 1006.8 |
| 20260904013553 | 26 | 179 | 0.0 | 3.2 | 0.00 | 0.00 | 0.00 | 79 | 1006.7 |
| 20260904013053 | 26 | 34 | 0.0 | 3.2 | 0.00 | 0.00 | 0.00 | 79 | 1006.6 |
| 20260904012556 | 26 | 120 | 0.0 | 4.8 | 0.00 | 0.00 | 0.00 | 78 | 1006.7 |
| 20260904012052 | 26 | 152 | 0.0 | 4.8 | 0.00 | 0.00 | 0.00 | 78 | 1006.5 |
| 20260904011552 | 26 | 143 | 0.0 | 6.4 | 0.00 | 0.00 | 0.00 | 78 | 1006.4 |
| 20260904011052 | 26 | 174 | 0.0 | 6.4 | 0.00 | 0.00 | 0.00 | 77 | 1006.3 |
| 20260904010552 | 26 | 187 | 0.0 | 8.0 | 0.00 | 0.00 | 0.00 | 77 | 1006.3 |
| 20260904010052 | 26 | 162 | 3.2 | 8.0 | 0.00 | 0.00 | 0.00 | 76 | 1006.3 |
| 20260904005553 | 27 | 174 | 0.0 | 6.4 | 0.00 | 0.00 | 0.00 | 75 | 1006.3 |
| 20260904005051 | 27 | 186 | 1.6 | 9.7 | 0.00 | 0.00 | 0.00 | 74 | 1006.3 |
| 20260904004551 | 27 | 184 | 1.6 | 9.7 | 0.00 | 0.00 | 0.00 | 73 | 1006.3 |
| 20260904004053 | 27 | 238 | 3.2 | 8.0 | 0.00 | 0.00 | 0.00 | 72 | 1006.3 |
| 20260904003552 | 27 | 224 | 1.6 | 6.4 | 0.00 | 0.00 | 0.00 | 71 | 1006.3 |
| 20260904003050 | 28 | 248 | 0.0 | 12.9 | 0.00 | 0.00 | 0.00 | 70 | 1006.2 |
| 20260904002553 | 28 | 244 | 1.6 | 12.9 | 0.00 | 0.00 | 0.00 | 69 | 1006.2 |